| time (UTC) | temp F | wind direction | speed MPH | gust MPH | rain 1hr in | rain 24hr in | rain mn in | humidity % | barometer mb |
| 20260503214726 | 60 | 65 | 3.0 | 8.0 | 0.00 | 0.00 | 0.00 | 52 | 1013.7 |
| 20260503214227 | 60 | 67 | 4.0 | 9.0 | 0.00 | 0.00 | 0.00 | 51 | 1013.7 |
| 20260503213723 | 60 | 93 | 4.0 | 9.0 | 0.00 | 0.00 | 0.00 | 51 | 1013.7 |
| 20260503213224 | 60 | 43 | 4.0 | 10.0 | 0.00 | 0.00 | 0.00 | 52 | 1013.7 |
| 20260503212721 | 60 | 48 | 3.0 | 10.0 | 0.00 | 0.00 | 0.00 | 51 | 1013.8 |
| 20260503212226 | 60 | 67 | 3.0 | 11.0 | 0.00 | 0.00 | 0.00 | 51 | 1013.8 |
| 20260503211717 | 60 | 103 | 4.0 | 11.0 | 0.00 | 0.00 | 0.00 | 51 | 1013.8 |
| 20260503211218 | 60 | 62 | 4.0 | 9.0 | 0.00 | 0.00 | 0.00 | 50 | 1013.9 |
| 20260503210715 | 60 | 34 | 3.0 | 8.0 | 0.00 | 0.00 | 0.00 | 51 | 1013.9 |
| 20260503210214 | 61 | 108 | 3.0 | 8.0 | 0.00 | 0.00 | 0.00 | 50 | 1013.9 |
| 20260503205712 | 61 | 37 | 4.0 | 10.0 | 0.00 | 0.00 | 0.00 | 50 | 1014.0 |
| 20260503205209 | 61 | 31 | 3.0 | 10.0 | 0.00 | 0.00 | 0.00 | 50 | 1014.0 |
| 20260503204710 | 61 | 61 | 3.0 | 8.0 | 0.00 | 0.00 | 0.00 | 50 | 1014.0 |
| 20260503204206 | 61 | 82 | 4.0 | 9.0 | 0.00 | 0.00 | 0.00 | 49 | 1014.0 |
| 20260503203703 | 61 | 83 | 4.0 | 10.0 | 0.00 | 0.00 | 0.00 | 49 | 1014.0 |
| 20260503203203 | 62 | 118 | 4.0 | 14.0 | 0.00 | 0.00 | 0.00 | 49 | 1014.0 |
| 20260503202704 | 62 | 82 | 5.0 | 14.0 | 0.00 | 0.00 | 0.00 | 49 | 1014.0 |
| 20260503202202 | 62 | 115 | 4.0 | 13.0 | 0.00 | 0.00 | 0.00 | 48 | 1014.0 |
| 20260503201701 | 62 | 71 | 4.0 | 13.0 | 0.00 | 0.00 | 0.00 | 48 | 1014.0 |
| 20260503201201 | 62 | 94 | 5.0 | 11.0 | 0.00 | 0.00 | 0.00 | 48 | 1014.1 |
| 20260503200700 | 62 | 38 | 5.0 | 11.0 | 0.00 | 0.00 | 0.00 | 48 | 1014.1 |
| 20260503200205 | 62 | 49 | 5.0 | 10.0 | 0.00 | 0.00 | 0.00 | 48 | 1014.1 |
| 20260503195701 | 63 | 79 | 4.0 | 10.0 | 0.00 | 0.00 | 0.00 | 48 | 1014.1 |
| 20260503195156 | 63 | 96 | 5.0 | 13.0 | 0.00 | 0.00 | 0.00 | 48 | 1014.2 |
| 20260503194653 | 63 | 92 | 5.0 | 13.0 | 0.00 | 0.00 | 0.00 | 47 | 1014.1 |
| 20260503194150 | 63 | 29 | 5.0 | 13.0 | 0.00 | 0.00 | 0.00 | 47 | 1014.1 |
| 20260503193647 | 63 | 81 | 6.0 | 11.0 | 0.00 | 0.00 | 0.00 | 47 | 1014.2 |
| 20260503193146 | 64 | 65 | 5.0 | 13.0 | 0.00 | 0.00 | 0.00 | 46 | 1014.2 |
| 20260503192643 | 64 | 66 | 5.0 | 13.0 | 0.00 | 0.00 | 0.00 | 46 | 1014.2 |
| 20260503192141 | 64 | 111 | 5.0 | 12.0 | 0.00 | 0.00 | 0.00 | 46 | 1014.1 |
| 20260503191641 | 64 | 11 | 6.0 | 12.0 | 0.00 | 0.00 | 0.00 | 46 | 1014.1 |
| 20260503191142 | 64 | 107 | 7.0 | 15.0 | 0.00 | 0.00 | 0.00 | 46 | 1014.1 |
| 20260503190638 | 65 | 107 | 7.0 | 15.0 | 0.00 | 0.00 | 0.00 | 45 | 1014.1 |
| 20260503190137 | 65 | 96 | 5.0 | 12.0 | 0.00 | 0.00 | 0.00 | 45 | 1014.1 |
| 20260503185638 | 65 | 121 | 5.0 | 12.0 | 0.00 | 0.00 | 0.00 | 45 | 1014.1 |
| 20260503185138 | 65 | 107 | 6.0 | 14.0 | 0.00 | 0.00 | 0.00 | 45 | 1014.1 |
| 20260503184636 | 65 | 103 | 5.0 | 14.0 | 0.00 | 0.00 | 0.00 | 44 | 1014.1 |
| 20260503184134 | 66 | 76 | 4.0 | 11.0 | 0.00 | 0.00 | 0.00 | 44 | 1014.0 |
| 20260503183635 | 66 | 94 | 5.0 | 15.0 | 0.00 | 0.00 | 0.00 | 44 | 1014.0 |
| 20260503183133 | 66 | 77 | 6.0 | 15.0 | 0.00 | 0.00 | 0.00 | 43 | 1013.9 |
| 20260503182631 | 66 | 125 | 6.0 | 14.0 | 0.00 | 0.00 | 0.00 | 43 | 1013.8 |
| 20260503182131 | 67 | 92 | 6.0 | 15.0 | 0.00 | 0.00 | 0.00 | 43 | 1013.9 |
| 20260503181630 | 67 | 107 | 6.0 | 15.0 | 0.00 | 0.00 | 0.00 | 43 | 1013.9 |
| 20260503181129 | 67 | 111 | 7.0 | 15.0 | 0.00 | 0.00 | 0.00 | 43 | 1013.8 |
| 20260503180626 | 67 | 73 | 7.0 | 16.0 | 0.00 | 0.00 | 0.00 | 42 | 1013.9 |
| 20260503180120 | 68 | 118 | 6.0 | 16.0 | 0.00 | 0.00 | 0.00 | 42 | 1013.8 |
| 20260503175614 | 68 | 99 | 6.0 | 14.0 | 0.00 | 0.00 | 0.00 | 41 | 1013.8 |
| 20260503175103 | 69 | 108 | 7.0 | 16.0 | 0.00 | 0.00 | 0.00 | 41 | 1013.9 |
| 20260503174603 | 69 | 163 | 8.0 | 17.0 | 0.00 | 0.00 | 0.00 | 40 | 1013.8 |
| 20260503174101 | 69 | 142 | 8.0 | 21.0 | 0.00 | 0.00 | 0.00 | 40 | 1013.8 |
| 20260503173603 | 70 | 98 | 7.0 | 21.0 | 0.00 | 0.00 | 0.00 | 40 | 1013.8 |
| 20260503173102 | 70 | 118 | 6.0 | 14.0 | 0.00 | 0.00 | 0.00 | 39 | 1013.9 |
| 20260503172603 | 71 | 91 | 6.0 | 14.0 | 0.00 | 0.00 | 0.00 | 39 | 1013.8 |
| 20260503172102 | 71 | 75 | 6.0 | 14.0 | 0.00 | 0.00 | 0.00 | 39 | 1013.9 |
| 20260503171603 | 71 | 96 | 7.0 | 14.0 | 0.00 | 0.00 | 0.00 | 38 | 1013.8 |
| 20260503171102 | 72 | 100 | 7.0 | 15.0 | 0.00 | 0.00 | 0.00 | 37 | 1013.9 |
| 20260503170602 | 72 | 156 | 7.0 | 15.0 | 0.00 | 0.00 | 0.00 | 37 | 1013.8 |
| 20260503170105 | 72 | 154 | 6.0 | 15.0 | 0.00 | 0.00 | 0.00 | 37 | 1013.9 |
| 20260503150531 | 76 | 124 | 10.0 | 18.0 | 0.00 | 0.00 | 0.00 | 31 | 1014.2 |
| 20260503131004 | 76 | 117 | 12.0 | 20.0 | 0.00 | 0.00 | 0.00 | 31 | 1015.6 |
| 20260503130502 | 76 | 125 | 10.0 | 20.0 | 0.00 | 0.00 | 0.00 | 30 | 1015.7 |
| 20260503110427 | 73 | 25 | 7.0 | 15.0 | 0.00 | 0.00 | 0.00 | 39 | 1017.0 |
| 20260503090407 | 68 | 121 | 8.0 | 16.0 | 0.00 | 0.00 | 0.00 | 43 | 1018.0 |
| 20260503081345 | 64 | 66 | 6.0 | 17.0 | 0.00 | 0.00 | 0.00 | 48 | 1018.1 |
| 20260503080843 | 64 | 85 | 7.0 | 14.0 | 0.00 | 0.00 | 0.00 | 50 | 1018.1 |
| 20260503080343 | 64 | 142 | 8.0 | 15.0 | 0.00 | 0.00 | 0.00 | 51 | 1018.1 |
| 20260503072830 | 62 | 71 | 4.0 | 11.0 | 0.00 | 0.00 | 0.00 | 50 | 1018.1 |
| 20260503072335 | 61 | 98 | 5.0 | 11.0 | 0.00 | 0.00 | 0.00 | 51 | 1018.1 |
| 20260503071835 | 61 | 122 | 5.0 | 10.0 | 0.00 | 0.00 | 0.00 | 51 | 1018.1 |
| 20260503071331 | 61 | 71 | 4.0 | 10.0 | 0.00 | 0.00 | 0.00 | 51 | 1018.2 |
| 20260503070831 | 60 | 82 | 4.0 | 10.0 | 0.00 | 0.00 | 0.00 | 51 | 1018.2 |
| 20260503070331 | 60 | 84 | 5.0 | 11.0 | 0.00 | 0.00 | 0.00 | 52 | 1018.1 |
| 20260503060306 | 56 | 72 | 3.0 | 8.0 | 0.00 | 0.00 | 0.00 | 54 | 1018.0 |
| 20260503054804 | 55 | 45 | 3.0 | 7.0 | 0.00 | 0.00 | 0.00 | 56 | 1017.9 |
| 20260503054305 | 54 | 135 | 2.0 | 6.0 | 0.00 | 0.00 | 0.00 | 57 | 1017.9 |
| 20260503053806 | 53 | 59 | 3.0 | 7.0 | 0.00 | 0.00 | 0.00 | 58 | 1017.9 |
| 20260503053306 | 52 | 9 | 2.0 | 7.0 | 0.00 | 0.00 | 0.00 | 60 | 1017.9 |
| 20260503052805 | 52 | 36 | 3.0 | 7.0 | 0.00 | 0.00 | 0.00 | 60 | 1017.9 |
| 20260503052306 | 51 | 45 | 4.0 | 8.0 | 0.00 | 0.00 | 0.00 | 60 | 1017.9 |
| 20260503051805 | 50 | 71 | 4.0 | 9.0 | 0.00 | 0.00 | 0.00 | 63 | 1017.9 |
| 20260503051305 | 49 | 21 | 4.0 | 9.0 | 0.00 | 0.00 | 0.00 | 65 | 1017.8 |
| 20260503050804 | 49 | 58 | 4.0 | 8.0 | 0.00 | 0.00 | 0.00 | 67 | 1017.8 |
| 20260503050304 | 47 | 41 | 4.0 | 10.0 | 0.00 | 0.00 | 0.00 | 70 | 1017.7 |
| 20260503045803 | 45 | 38 | 4.0 | 10.0 | 0.00 | 0.00 | 0.00 | 74 | 1017.8 |
| 20260503045305 | 43 | 95 | 4.0 | 9.0 | 0.00 | 0.00 | 0.00 | 76 | 1017.8 |
| 20260503044803 | 42 | 49 | 4.0 | 7.0 | 0.00 | 0.00 | 0.00 | 80 | 1017.8 |
| 20260503044302 | 40 | 73 | 3.0 | 7.0 | 0.00 | 0.00 | 0.00 | 84 | 1017.8 |
| 20260503043757 | 39 | 42 | 3.0 | 5.0 | 0.00 | 0.00 | 0.00 | 86 | 1017.8 |
| 20260503043253 | 38 | 47 | 3.0 | 5.0 | 0.00 | 0.00 | 0.00 | 87 | 1017.8 |
| 20260503042753 | 38 | 25 | 3.0 | 5.0 | 0.00 | 0.00 | 0.00 | 87 | 1017.7 |
| 20260503042252 | 37 | 42 | 3.0 | 4.0 | 0.00 | 0.00 | 0.00 | 87 | 1017.8 |
| 20260503041753 | 37 | 43 | 2.0 | 4.0 | 0.00 | 0.00 | 0.00 | 87 | 1017.7 |
| 20260503041253 | 37 | 26 | 1.0 | 3.0 | 0.00 | 0.00 | 0.00 | 86 | 1017.7 |
| 20260503040752 | 37 | 37 | 1.0 | 3.0 | 0.00 | 0.00 | 0.00 | 85 | 1017.7 |
| 20260503040250 | 38 | 37 | 0.0 | 3.0 | 0.00 | 0.00 | 0.00 | 86 | 1017.7 |
| 20260503035752 | 38 | 37 | 0.0 | 0.0 | 0.00 | 0.00 | 0.00 | 87 | 1017.6 |
| 20260503035248 | 38 | 37 | 0.0 | 0.0 | 0.00 | 0.00 | 0.00 | 87 | 1017.6 |
| 20260503034747 | 38 | 37 | 1.0 | 2.0 | 0.00 | 0.00 | 0.00 | 85 | 1017.7 |
| 20260503034243 | 38 | 37 | 1.0 | 3.0 | 0.00 | 0.00 | 0.00 | 85 | 1017.7 |
| 20260503033742 | 38 | 37 | 1.0 | 3.0 | 0.00 | 0.00 | 0.00 | 86 | 1017.6 |
| 20260503033241 | 38 | 37 | 1.0 | 2.0 | 0.00 | 0.00 | 0.00 | 86 | 1017.6 |
| 20260503032742 | 38 | 37 | 1.0 | 2.0 | 0.00 | 0.00 | 0.00 | 86 | 1017.6 |
| 20260503032241 | 38 | 37 | 2.0 | 3.0 | 0.00 | 0.00 | 0.00 | 86 | 1017.7 |
| 20260503031740 | 38 | 37 | 2.0 | 3.0 | 0.00 | 0.00 | 0.00 | 86 | 1017.7 |
| 20260503031238 | 39 | 37 | 3.0 | 5.0 | 0.00 | 0.00 | 0.00 | 84 | 1017.6 |
| 20260503030738 | 39 | 24 | 2.0 | 5.0 | 0.00 | 0.00 | 0.00 | 84 | 1017.7 |
| 20260503030238 | 39 | 30 | 2.0 | 4.0 | 0.00 | 0.00 | 0.00 | 87 | 1017.7 |
| 20260503025737 | 39 | 36 | 3.0 | 4.0 | 0.00 | 0.00 | 0.00 | 87 | 1017.7 |
| 20260503025245 | 39 | 54 | 3.0 | 5.0 | 0.00 | 0.00 | 0.00 | 84 | 1017.7 |
| 20260503024735 | 39 | 33 | 2.0 | 5.0 | 0.00 | 0.00 | 0.00 | 82 | 1017.7 |
| 20260503024231 | 39 | 34 | 1.0 | 4.0 | 0.00 | 0.00 | 0.00 | 82 | 1017.8 |
| 20260503023731 | 40 | 37 | 2.0 | 3.0 | 0.00 | 0.00 | 0.00 | 84 | 1017.8 |
| 20260503023229 | 40 | 37 | 2.0 | 3.0 | 0.00 | 0.00 | 0.00 | 85 | 1017.9 |
| 20260503022730 | 40 | 35 | 2.0 | 3.0 | 0.00 | 0.00 | 0.00 | 86 | 1017.9 |
| 20260503022230 | 40 | 44 | 2.0 | 3.0 | 0.00 | 0.00 | 0.00 | 86 | 1018.0 |
| 20260503021731 | 40 | 62 | 2.0 | 3.0 | 0.00 | 0.00 | 0.00 | 86 | 1018.0 |
| 20260503021231 | 40 | 65 | 2.0 | 4.0 | 0.00 | 0.00 | 0.00 | 85 | 1018.1 |
| 20260503020732 | 40 | 40 | 2.0 | 4.0 | 0.00 | 0.00 | 0.00 | 85 | 1018.0 |
| 20260503020230 | 40 | 59 | 2.0 | 5.0 | 0.00 | 0.00 | 0.00 | 86 | 1018.1 |
| 20260503015730 | 40 | 59 | 2.0 | 5.0 | 0.00 | 0.00 | 0.00 | 87 | 1018.1 |
| 20260503015223 | 39 | 66 | 2.0 | 4.0 | 0.00 | 0.00 | 0.00 | 86 | 1018.2 |
| 20260503014717 | 39 | 59 | 2.0 | 3.0 | 0.00 | 0.00 | 0.00 | 85 | 1018.1 |
| 20260503014217 | 39 | 67 | 2.0 | 5.0 | 0.00 | 0.00 | 0.00 | 83 | 1018.1 |
| 20260503013713 | 39 | 67 | 3.0 | 5.0 | 0.00 | 0.00 | 0.00 | 84 | 1018.0 |
| 20260503013212 | 39 | 68 | 2.0 | 4.0 | 0.00 | 0.00 | 0.00 | 82 | 1018.1 |
| 20260503012711 | 39 | 69 | 1.0 | 3.0 | 0.00 | 0.00 | 0.00 | 81 | 1018.2 |
| 20260503012210 | 40 | 69 | 2.0 | 3.0 | 0.00 | 0.00 | 0.00 | 81 | 1018.2 |
| 20260503011710 | 40 | 69 | 2.0 | 3.0 | 0.00 | 0.00 | 0.00 | 83 | 1018.2 |
| 20260503011208 | 40 | 69 | 2.0 | 4.0 | 0.00 | 0.00 | 0.00 | 82 | 1018.4 |
| 20260503010707 | 40 | 69 | 2.0 | 4.0 | 0.00 | 0.00 | 0.00 | 83 | 1018.4 |
| 20260503010207 | 40 | 61 | 2.0 | 4.0 | 0.00 | 0.00 | 0.00 | 83 | 1018.4 |
| 20260503005704 | 40 | 61 | 1.0 | 3.0 | 0.00 | 0.00 | 0.00 | 83 | 1018.4 |
| 20260503005205 | 40 | 61 | 1.0 | 3.0 | 0.00 | 0.00 | 0.00 | 83 | 1018.4 |
| 20260503004704 | 40 | 61 | 1.0 | 3.0 | 0.00 | 0.00 | 0.00 | 80 | 1018.4 |
| 20260503004205 | 40 | 61 | 1.0 | 3.0 | 0.00 | 0.00 | 0.00 | 80 | 1018.4 |
| 20260503003702 | 40 | 56 | 1.0 | 3.0 | 0.00 | 0.00 | 0.00 | 77 | 1018.5 |
| 20260503003202 | 41 | 56 | 2.0 | 4.0 | 0.00 | 0.00 | 0.00 | 77 | 1018.5 |
| 20260503002701 | 41 | 56 | 2.0 | 4.0 | 0.00 | 0.00 | 0.00 | 76 | 1018.5 |
| 20260503002202 | 42 | 54 | 2.0 | 4.0 | 0.00 | 0.00 | 0.00 | 75 | 1018.5 |
| 20260503001704 | 42 | 57 | 2.0 | 3.0 | 0.00 | 0.00 | 0.00 | 74 | 1018.6 |
| 20260503001156 | 43 | 71 | 1.0 | 3.0 | 0.00 | 0.00 | 0.00 | 73 | 1018.7 |
| 20260503000650 | 43 | 71 | 1.0 | 3.0 | 0.00 | 0.00 | 0.00 | 73 | 1018.6 |
| 20260503000144 | 44 | 71 | 2.0 | 3.0 | 0.00 | 0.00 | 0.00 | 74 | 1018.7 |
| 20260502235647 | 44 | 71 | 2.0 | 5.0 | 0.00 | 0.00 | 0.00 | 75 | 1018.7 |
| 20260502235138 | 44 | 71 | 2.0 | 5.0 | 0.00 | 0.00 | 0.00 | 77 | 1018.7 |
| 20260502234635 | 44 | 46 | 2.0 | 4.0 | 0.00 | 0.00 | 0.00 | 77 | 1018.8 |
| 20260502234132 | 44 | 33 | 2.0 | 4.0 | 0.00 | 0.00 | 0.00 | 76 | 1018.9 |
| 20260502233633 | 44 | 58 | 2.0 | 4.0 | 0.00 | 0.00 | 0.00 | 74 | 1018.9 |
| 20260502233130 | 45 | 73 | 2.0 | 6.0 | 0.00 | 0.00 | 0.00 | 72 | 1018.8 |
| 20260502232633 | 45 | 105 | 3.0 | 6.0 | 0.00 | 0.00 | 0.00 | 72 | 1018.9 |
| 20260502232130 | 45 | 90 | 3.0 | 7.0 | 0.00 | 0.00 | 0.00 | 72 | 1018.9 |
| 20260502231632 | 46 | 119 | 4.0 | 7.0 | 0.00 | 0.00 | 0.00 | 74 | 1019.0 |
| 20260502231131 | 46 | 96 | 4.0 | 7.0 | 0.00 | 0.00 | 0.00 | 75 | 1019.0 |
| 20260502230633 | 46 | 122 | 3.0 | 7.0 | 0.00 | 0.00 | 0.00 | 75 | 1019.0 |
| 20260502230136 | 46 | 110 | 3.0 | 7.0 | 0.00 | 0.00 | 0.00 | 76 | 1019.0 |
| 20260502225632 | 46 | 123 | 3.0 | 7.0 | 0.00 | 0.00 | 0.00 | 77 | 1019.0 |
| 20260502225131 | 45 | 130 | 3.0 | 5.0 | 0.00 | 0.00 | 0.00 | 78 | 1019.0 |
| 20260502224633 | 45 | 115 | 3.0 | 5.0 | 0.00 | 0.00 | 0.00 | 76 | 1019.0 |
| 20260502224133 | 45 | 123 | 3.0 | 5.0 | 0.00 | 0.00 | 0.00 | 74 | 1019.1 |
| 20260502223623 | 45 | 123 | 3.0 | 5.0 | 0.00 | 0.00 | 0.00 | 75 | 1019.1 |
| 20260502223121 | 45 | 135 | 3.0 | 7.0 | 0.00 | 0.00 | 0.00 | 74 | 1019.2 |
| 20260502222623 | 46 | 126 | 3.0 | 7.0 | 0.00 | 0.00 | 0.00 | 72 | 1019.2 |
| 20260502222120 | 46 | 102 | 3.0 | 6.0 | 0.00 | 0.00 | 0.00 | 71 | 1019.3 |
| 20260502221621 | 47 | 86 | 2.0 | 6.0 | 0.00 | 0.00 | 0.00 | 68 | 1019.3 |
| 20260502221121 | 48 | 100 | 2.0 | 5.0 | 0.00 | 0.00 | 0.00 | 65 | 1019.4 |
| 20260502220621 | 48 | 90 | 2.0 | 3.0 | 0.00 | 0.00 | 0.00 | 64 | 1019.4 |
| 20260502220127 | 49 | 78 | 2.0 | 3.0 | 0.00 | 0.00 | 0.00 | 63 | 1019.4 |
| 20260502215619 | 50 | 78 | 1.0 | 4.0 | 0.00 | 0.00 | 0.00 | 62 | 1019.4 |